Regional Weather Roundup
Issued by NWS

Home | Current Version | Previous Version | Text Only | Print | Product List | Glossary Off
Versions: 1 2 3 4 5 6 7 8 9 10 11 12 13 14 15 16 17 18 19 20 21 22 23 24 25 26 27 28 29 30 31 32 33 34 35 36 37 38 39 40 41 42 43 44 45 46 47 48 49 50

000
ASUS43 KDMX 210306
RWRIA

WEATHER ROUNDUP FOR IOWA
NATIONAL WEATHER SERVICE DES MOINES IA
1000 PM CDT WED SEP 20 2017

NOTE: "FAIR" INDICATES FEW OR NO CLOUDS BELOW 12,000 FEET WITH NO
SIGNIFICANT WEATHER AND/OR OBSTRUCTIONS TO VISIBILITY.

* - THESE STATIONS ARE NOT NWS STATIONS...THUS NOT UNDER NWS
QUALITY CONTROL.  THEY ALSO DO NOT REPORT WEATHER SUCH
AS PRECIPITATION OR FOG.

IAZ001>003-012>014-020>022-031>034-043>046-210400-
   NORTHWEST IOWA

CITY           SKY/WX    TMP DP  RH WIND       PRES   REMARKS
CARROLL *      MOCLDY    59  55  88 CALM      29.89R
CHEROKEE *     CLEAR     55  54  97 CALM      29.91R
DENISON *      CLEAR     57  55  94 CALM      29.91S
LE MARS *      CLEAR     55  54  94 CALM      29.91S
ORANGE CITY *  CLEAR     63  48  59 CALM      29.92S
SHELDON *      CLEAR     52  50  93 CALM      29.91R
SIOUX CITY     CLEAR     55  52  89 CALM      29.90R
SPENCER        CLEAR     53  50  89 NW3       29.92R
STORM LAKE *   CLEAR     61  46  59 N5        29.92R
$$

IAZ055>058-069>071-079>083-090>094-210400-
   SOUTHWEST IOWA

CITY           SKY/WX    TMP DP  RH WIND       PRES   REMARKS
ATLANTIC *     CLEAR     64  59  82 NE5       29.89R
AUDUBON *      CLEAR     61  57  88 CALM      29.90S
CLARINDA *     MOCLDY    68  66  94 N6        29.88R
COUNCIL BLFS * CLEAR     64  57  77 N6        29.89R
CRESTON *      CLEAR     72  61  68 NE9       29.89R
HARLAN  *      CLEAR     61  57  88 CALM      29.93R
LAMONI         PTCLDY    74  68  81 N3        29.87R
RED OAK *      PTCLDY    66  61  82 N6        29.88R
SHENANDOAH *   CLEAR     68  61  77 NE6       29.87R
$$

IAZ047>049-059>061-072>074-084-210400-
   CENTRAL IOWA

CITY           SKY/WX    TMP DP  RH WIND       PRES   REMARKS
AMES           CLOUDY    72  60  66 N8        29.88R
ANKENY *       MOCLDY    70  63  78 NE5       29.88R
BOONE *        MOCLDY    68  57  68 N7        29.88R
CHARITON *     PTCLDY    73  68  83 N5        29.87R
DES MOINES     MOCLDY    77  59  53 N8        29.86R
GRINNELL*      CLEAR     73  63  71 N6        29.88R
KNOXVILLE *    CLEAR     77  63  61 NE6       29.85R
MARSHALLTOWN   CLEAR     68  62  81 N6        29.88R
NEWTON *       CLEAR     72  63  73 NE9       29.88R
PELLA *          N/A     74  65  75 N3        29.87R HAZE
PERRY *          N/A     68  55  62 N6        29.88R
$$

IAZ004>006-015-016-023>025-035-036-210400-
   NORTH CENTRAL IOWA

CITY           SKY/WX    TMP DP  RH WIND       PRES   REMARKS
ALGONA *       CLEAR     59  54  82 CALM      29.91R
CLARION *      CLEAR     57  57 100 NE5       29.90R
ESTHERVILLE    CLEAR     54  53  97 CALM      29.91R
FORT DODGE *   CLEAR     59  56  89 CALM      29.90R
MASON CITY     CLEAR     54  51  90 CALM      29.92R
FOREST CITY *    N/A     55  54  94 CALM      29.91R
IOWA FALLS *     N/A     67  59  75 CALM      29.90R
$$

IAZ007>011-017>019-026>030-037>042-050>054-066-210400-
   NORTHEAST IOWA

CITY           SKY/WX    TMP DP  RH WIND       PRES   REMARKS
CEDAR RAPIDS   CLOUDY    75  71  87 NE8       29.87R
CHARLES CITY * CLEAR     63  59  88 NE5       29.90R
CLINTON *      HVY RAIN N/A N/A N/A W24G31    29.93F
DECORAH *      CLOUDY    66  61  82 CALM      29.91R
DUBUQUE        CLOUDY    71  68  90 S15       29.91R
MONTICELLO *   CLOUDY    75  70  83 SE9G18    29.89R
OELWEIN *      MOCLDY    68  66  94 NE7       29.92R
WATERLOO       CLEAR     65  60  84 NE5       29.89R
$$

IAZ064-065-067-068-078-210400-
   EAST CENTRAL IOWA

CITY           SKY/WX    TMP DP  RH WIND       PRES   REMARKS
DAVENPORT      TSTM      71  68  90 N9        29.97R
IOWA CITY      CLOUDY    80  72  76 VRB5      29.88R THUNDER HX  84
MUSCATINE *    CLOUDY    75  72  88 NE8       29.87R
QUAD CITIES    TSTM      74  68  81 CALM      29.88R
$$

IAZ062-063-075>077-085>089-095>099-210400-
   SOUTHEAST IOWA

CITY           SKY/WX    TMP DP  RH WIND       PRES   REMARKS
BURLINGTON     CLOUDY    81  70  69 SW8       29.86R HX  84
FAIRFIELD *    CLOUDY    77  73  88 SE5       29.85R
FORT MADISON * CLOUDY    81  72  74 S7        29.88R HX  84
KEOKUK *       CLOUDY    84  70  61 S6        29.87R HX  88
OSKALOOSA *    CLOUDY    76  71  83 CALM      29.86R
OTTUMWA        MOCLDY    80  72  76 S5        29.85R HX  84
WASHINGTON *   CLOUDY    77  75  94 S3        29.87R
$$

ABBREVIATIONS USED IN REMARKS
   TC - TEMPERATURES IN CELSIUS
  WCI - WIND CHILL INDEX
   HX - HEAT INDEX
  VSB - VISIBILITY
$$





USA.gov is the U.S. government's official web portal to all federal, state and local government web resources and services.